Probability
11 8 4 1 0 1 2 2 3 2 1 1 2 1 0 1 2 2 2 2 5 9 8 5 4 3 3 3 7 10 13 14 15 11 6 4 2 1 0 0 0 0 0
11 9 5 1 1 2 4 4 4 3 2 2 2 2 1 1 2 2 1 1 3 6 7 6 6 5 3 4 7 11 15 18 18 14 9 7 5 2 1 0 0 0 0
14 13 8 3 3 5 8 9 8 7 5 4 2 3 2 2 2 3 2 1 1 3 5 6 6 7 7 7 9 12 15 21 24 22 17 13 9 6 4 2 1 0 0
19 17 12 7 6 8 10 11 10 9 8 5 3 3 3 1 1 2 1 1 1 2 3 4 4 8 12 11 11 12 16 21 26 31 30 22 13 9 7 6 4 2 1
19 18 14 11 9 9 9 10 9 7 6 5 3 3 2 1 0 0 0 0 1 2 3 3 4 7 11 13 15 17 20 23 26 33 39 34 22 14 9 7 5 3 2
17 16 13 10 9 9 8 8 7 5 3 3 2 2 1 0 0 0 0 0 0 1 2 2 4 5 6 9 15 22 26 27 27 32 40 40 30 18 11 7 4 3 2
16 15 11 7 7 8 8 6 5 4 3 1 1 1 0 0 0 0 0 0 0 1 1 1 3 3 3 4 10 19 27 29 29 32 37 38 30 20 14 9 5 1 1
13 12 9 5 4 4 4 3 3 3 2 1 0 0 0 0 0 0 0 0 0 0 0 0 1 1 1 2 6 12 20 24 26 30 32 32 26 20 19 16 9 3 1
9 9 7 4 2 1 1 1 1 1 1 0 0 0 0 0 0 0 0 0 0 0 0 0 0 0 0 1 3 7 11 14 18 23 26 28 26 24 24 23 19 11 6
7 6 4 2 1 0 0 0 0 0 0 0 0 0 0 0 0 0 0 0 0 0 0 0 0 0 0 0 1 2 3 5 9 14 19 25 29 29 28 28 28 23 17
3 2 2 1 0 0 0 0 0 0 0 0 0 0 0 0 0 0 0 0 0 0 0 0 0 0 0 0 0 0 0 1 3 6 11 18 25 28 29 30 32 32 29
1 0 0 0 0 0 0 0 0 0 0 0 0 0 0 0 0 0 0 0 0 0 0 0 0 0 0 0 0 0 0 0 0 1 3 8 14 20 24 27 33 37 37
0 0 0 0 0 0 0 0 0 0 0 0 0 0 0 0 0 0 0 0 0 0 0 0 0 0 0 0 0 0 0 0 0 0 0 2 5 10 15 20 28 35 37
0 0 0 0 0 0 0 0 0 0 0 0 0 0 0 0 0 0 0 0 0 0 0 0 0 0 0 0 0 0 0 0 0 0 0 0 1 4 6 10 16 22 25
0 0 0 0 0 0 0 0 0 0 0 0 0 0 0 0 0 0 0 0 0 0 0 0 0 0 0 0 0 0 0 0 0 0 0 0 0 1 1 2 4 7 9
0 0 0 0 0 0 0 0 0 0 0 0 0 0 0 0 0 0 0 0 0 0 0 0 0 0 0 0 0 0 0 0 0 0 0 0 0 0 0 0 0 1 2
0 0 0 0 0 0 0 0 0 0 0 0 0 0 0 0 0 0 0 0 0 0 0 0 0 0 0 0 0 0 0 0 0 0 0 0 0 0 0 0 0 0 0
0 0 0 0 0 0 0 0 0 0 0 0 0 0 0 0 0 0 0 0 0 0 0 0 0 0 0 0 0 0 0 0 0 0 0 0 0 0 0 0 0 0 0
0 0 0 0 0 0 0 0 0 0 0 0 0 0 0 0 0 0 0 0 0 0 0 0 0 0 0 0 0 0 0 0 0 0 0 0 0 0 0 0 0 0 0
0 0 0 0 0 0 0 0 0 0 0 0 0 0 0 0 0 0 0 0 0 0 0 0 0 0 0 0 0 0 0 0 0 0 0 0 0 0 0 0 0 0 0
0 0 0 0 0 0 0 0 0 0 0 0 0 0 0 0 0 0 0 0 0 0 0 0 0 0 0 0 0 0 0 0 0 0 0 0 0 0 0 0 0 0 0
0 0 0 0 0 0 0 0 0 0 0 0 0 0 0 0 0 0 0 0 0 0 0 0 0 0 0 0 0 0 0 0 0 0 0 0 0 0 0 0 0 0 0
0 0 0 0 0 0 0 0 0 0 0 0 0 0 0 0 0 0 0 0 0 0 0 0 0 0 0 0 0 0 0 0 0 0 0 0 0 0 0 0 0 0 0
0 0 0 0 0 0 0 0 0 0 0 0 0 0 0 0 0 0 0 0 0 0 0 0 0 0 0 0 0 0 0 0 0 0 0 0 0 0 0 0 0 0 0
0 0 0 0 0 0 0 0 0 0 0 0 0 0 0 0 0 0 0 0 0 0 0 0 0 0 0 0 0 0 0 0 0 0 0 0 0 0 0 0 0 0 0
0 0 0 0 0 0 0 0 0 0 0 0 0 0 0 0 0 0 0 0 0 0 0 0 0 0 0 0 0 0 0 0 0 0 0 0 0 0 0 0 0 0 0
Wind_Speed
6 6 5 4 5 4 4 5 5 5 6 7 7 8 8 8 8 7 5 13 14 14 14 14 14 15 16 17 18 18 18 18 18 17 18 18 17 17 16 16 16 15 14
6 5 5 5 5 4 4 4 4 4 4 4 6 7 7 7 7 8 7 8 13 13 14 15 15 15 16 17 18 18 18 18 18 18 18 18 18 17 17 17 17 16 15
7 6 5 4 4 3 3 3 3 2 3 3 4 5 5 6 6 7 7 6 7 11 14 14 14 14 14 16 16 17 17 18 18 18 19 19 19 18 18 18 17 17 17
8 6 5 4 3 2 2 2 2 1 2 2 3 3 4 4 6 6 6 6 6 6 9 13 13 12 13 14 15 15 16 17 18 18 19 19 19 19 19 18 18 18 17
6 5 5 4 3 3 2 2 1 2 2 2 3 4 4 4 5 6 6 7 6 6 6 8 12 12 13 14 15 15 16 17 17 18 19 20 20 19 19 19 19 18 18
4 4 4 4 4 3 2 2 2 2 2 2 3 3 3 4 3 4 6 5 5 6 6 6 5 6 10 10 12 13 15 16 16 18 19 19 19 19 18 19 19 19 19
3 3 3 3 3 3 4 3 2 2 2 1 0 2 3 3 2 2 3 3 3 4 4 4 4 4 4 8 9 11 14 15 15 16 17 17 18 19 19 19 19 19 19
2 3 3 3 3 3 3 3 3 2 1 2 2 0 2 3 2 1 1 1 2 2 2 3 4 4 4 4 6 10 11 12 13 14 14 15 17 17 18 19 19 19 20
2 2 3 3 3 4 4 4 4 4 3 2 2 2 2 2 2 3 2 1 2 1 2 3 4 5 5 4 5 8 10 10 11 12 13 14 16 17 17 18 18 19 20
3 2 2 2 3 3 4 4 4 4 4 3 2 2 2 2 2 2 3 2 3 3 3 3 4 5 5 4 5 7 9 9 10 11 13 13 14 16 16 17 18 19 19
3 3 2 2 3 3 4 4 4 5 4 4 4 3 2 2 2 2 3 3 3 3 4 4 4 4 4 5 5 6 8 8 9 10 11 12 13 14 15 17 18 19 19
2 3 3 2 3 3 4 5 5 6 5 5 4 4 4 3 4 4 5 4 4 3 4 4 4 3 3 4 5 7 7 8 8 9 10 11 12 13 15 16 18 18 18
2 3 3 3 3 4 5 4 5 6 6 6 6 5 5 5 4 4 4 3 4 3 3 2 3 3 3 2 3 6 6 6 7 8 9 9 10 11 12 14 15 16 16
3 4 4 4 4 5 5 4 5 6 5 7 7 6 5 5 5 5 4 3 3 3 3 4 2 2 2 2 2 4 3 4 6 6 7 8 8 9 10 11 11 12 12
4 4 4 4 4 4 4 4 4 5 5 6 6 7 5 5 5 5 5 5 4 4 4 3 2 1 1 1 2 2 2 3 4 4 4 5 5 6 7 7 7 8 8
5 5 5 5 5 5 4 4 4 5 5 6 5 6 6 5 5 5 5 5 5 5 5 3 3 2 3 3 2 2 2 2 2 2 3 3 4 4 5 6 6 6 7
6 6 6 5 5 5 5 4 5 5 5 6 5 6 7 6 5 5 5 6 6 6 7 5 3 2 3 3 2 1 1 1 1 2 3 4 5 5 5 5 6 6 7
7 7 6 6 7 6 5 5 6 5 5 6 6 6 8 6 7 6 6 7 7 7 6 7 4 3 3 3 2 1 0 1 2 4 5 6 6 6 7 7 6 6 6
8 7 7 7 7 7 6 6 6 6 6 7 6 7 7 7 8 7 7 7 6 6 6 5 4 2 2 2 1 0 2 2 3 5 7 7 8 8 9 9 8 8 8
8 8 8 8 8 8 7 7 7 6 7 7 7 7 7 8 9 9 8 8 7 7 6 5 5 3 2 2 2 2 2 2 3 4 6 7 10 11 10 11 11 11 11
10 9 9 9 8 7 8 8 8 7 7 7 7 7 8 10 12 10 8 8 8 7 6 6 5 4 4 3 3 3 3 4 3 3 5 5 5 6 7 9 12 13 13
9 8 9 9 9 8 10 13 9 7 7 7 8 8 8 10 12 13 14 12 11 9 8 7 6 7 6 5 4 4 5 5 3 3 4 5 4 6 5 5 9 12 13
9 9 9 9 10 11 14 13 13 8 8 8 8 8 7 7 9 8 10 12 13 13 12 9 8 8 8 8 8 7 6 5 4 5 5 5 4 6 5 6 11 12 13
8 8 9 9 9 11 14 14 14 9 8 9 9 9 9 8 8 8 8 8 9 10 11 10 9 9 8 8 9 8 7 6 6 4 4 5 4 5 5 5 9 11 12
8 8 8 9 9 10 13 14 12 6 7 9 9 9 9 9 10 10 9 8 8 7 8 10 10 9 9 10 9 8 8 9 7 4 2 5 5 5 5 5 7 10 11
9 8 8 8 9 10 12 13 12 5 7 7 7 7 10 10 10 11 9 8 9 7 6 6 6 7 8 10 13 10 10 10 8 5 4 5 6 5 5 3 4 5 7
Wind_Direction
229 229 234 236 238 236 238 242 240 239 235 234 235 236 238 237 238 237 243 250 251 248 249 246 241 236 233 230 226 220 217 216 214 211 211 212 212 210 208 207 205 203 200
225 225 231 235 236 231 230 230 235 235 238 236 243 240 240 241 242 241 239 248 251 251 250 247 246 242 236 232 227 221 220 219 217 214 213 214 213 212 211 210 208 206 203
220 221 226 231 232 222 218 218 230 230 241 242 249 251 246 244 244 244 244 243 251 253 253 250 248 244 240 237 231 225 222 220 218 215 215 215 214 213 212 213 211 209 206
218 214 216 225 222 203 196 199 202 211 234 239 247 255 252 249 250 249 248 246 245 249 252 253 252 246 244 241 237 232 226 223 219 217 216 216 217 215 213 213 213 211 209
215 208 213 212 194 179 180 191 176 192 220 241 253 254 254 250 252 255 250 248 244 244 246 253 253 250 247 243 238 232 228 227 221 219 218 217 218 217 215 214 214 213 211
204 203 206 199 178 171 176 179 177 190 212 238 266 276 273 267 261 255 254 253 249 246 245 247 248 249 248 246 241 236 232 229 224 222 220 218 217 216 216 215 215 214 213
204 205 199 188 183 184 187 186 175 187 208 182 285 315 308 292 273 254 255 248 249 251 250 249 244 243 248 247 242 240 238 234 230 227 223 220 219 217 215 216 215 214 214
220 215 196 195 196 195 193 186 180 173 193 170 161 122 331 334 333 336 310 259 265 262 265 267 256 249 247 244 243 243 243 241 235 231 227 222 221 218 215 217 216 214 214
306 258 221 202 202 201 205 205 191 183 192 200 188 168 175 247 303 317 322 317 305 288 291 286 271 260 250 243 246 246 246 245 243 239 234 229 223 218 216 216 216 215 214
313 295 268 236 219 209 216 216 196 189 177 197 205 210 201 182 201 302 310 308 310 292 291 293 288 273 258 248 244 244 246 245 246 245 241 235 225 218 216 217 218 217 214
322 310 276 251 240 224 222 220 203 200 193 191 188 182 195 212 210 218 270 299 307 284 280 278 274 271 262 250 248 248 246 246 245 245 245 241 235 228 221 220 221 220 218
318 327 311 283 262 247 236 225 214 210 207 201 199 191 183 188 199 205 235 261 280 280 280 272 263 261 259 253 254 254 247 244 241 242 242 241 238 233 227 222 222 223 222
300 306 313 296 277 263 254 238 222 220 211 206 206 207 205 209 196 195 221 248 265 281 283 273 259 263 267 261 264 268 258 245 241 241 241 242 240 234 226 222 221 223 222
271 278 283 279 277 270 261 244 234 228 217 215 218 212 214 215 207 202 204 215 257 268 261 264 279 261 274 281 282 280 264 249 241 238 240 239 234 229 223 219 218 218 217
261 270 277 280 279 272 263 248 238 235 223 220 221 218 221 220 213 213 210 207 217 250 265 252 254 266 269 295 287 275 266 257 243 236 234 229 223 215 208 206 204 204 203
251 263 270 273 273 270 264 251 244 238 230 227 222 220 224 223 218 217 216 216 215 224 248 241 238 261 285 290 288 273 261 241 246 218 203 196 190 179 177 182 176 178 184
248 249 253 259 263 262 259 249 245 241 233 236 232 224 230 223 219 219 217 217 218 217 241 254 241 249 260 269 284 284 262 232 176 148 149 144 140 138 141 146 158 168 174
249 246 247 249 254 253 247 244 249 248 240 241 240 233 234 228 223 220 217 220 221 219 229 248 247 238 242 252 252 245 220 126 121 112 120 123 122 122 122 124 131 138 145
250 249 244 242 246 247 245 241 239 245 243 240 240 240 239 230 228 223 221 221 221 222 222 233 243 229 230 230 228 173 121 112 105 102 99 101 104 106 106 107 108 109 114
243 245 241 239 239 241 242 241 237 241 244 245 242 241 241 235 232 226 222 222 217 217 219 226 231 228 223 205 187 174 145 120 105 96 88 88 93 93 96 101 103 103 103
243 240 241 241 238 236 238 235 233 236 237 246 251 248 245 244 239 229 222 215 210 212 212 219 221 216 209 191 190 172 154 127 91 104 104 92 91 88 86 92 98 102 102
245 239 239 241 240 240 238 234 229 232 236 241 249 253 253 253 249 236 227 216 207 208 209 212 216 215 209 195 179 170 158 149 134 135 111 94 91 89 80 84 97 101 102
247 241 240 238 239 241 240 240 239 233 234 238 241 247 254 250 239 234 229 223 218 216 210 209 218 216 204 189 177 178 176 160 142 148 121 100 90 88 82 88 98 102 104
248 246 243 239 238 244 241 239 242 239 236 239 239 240 242 248 239 226 224 221 221 220 216 216 223 219 208 192 184 175 159 130 112 124 117 110 104 92 88 86 94 101 105
250 246 245 239 237 246 244 240 237 232 237 243 243 240 237 241 236 222 219 221 221 226 223 221 220 213 196 180 165 150 153 149 141 137 115 114 123 105 88 83 90 97 105
251 251 248 242 238 242 243 240 234 222 233 242 244 240 235 234 231 215 215 216 219 217 204 199 199 190 183 174 169 169 166 160 146 141 150 128 142 132 109 83 92 102 105